ISS DEB (44789 NORAD) Tracking and Keplerian Element Data
This shows tracking and keplerian element data for the satellite.
Feedback or suggestion? Click here.
Element | Value |
Catalog | 44789 |
Name | ISS DEB |
Epoch Orbit | 8972 |
Epoch Day | 162.58449091 |
Epoch Year | 2021 |
RAAN | 314.3411 |
Inclination | 51.6111 |
Eccentricity | 0.00127 |
Argument of Perigee | 300.8738 |
Mean Anonmoly | 59.1038 |
Mean Motion | 16.37153671 |
Decay Rate | 0.09083592 |
L1 | 1 44789U 98067QU 21162.58449091 .09083592 12427-4 88933-3 0 9994 |
L2 | 2 44789 51.6111 314.3411 0012700 300.8738 59.1038 16.37153671 89727 |
Live tracking and technical data element details for ISS DEB (NORAD 44789). ISS DEB can be tracked NOW for your location showing map with azimuth and elevation plus other details from your city location.
Track the satellite on the map from your city or location and see movement details for azimuth, elevation, latitude, longitude, range, height, and movement on the map or in text.
IsCatalogInMostPopularTable: catalog: 44789, numindb: 25871
Update: records affected: 1
GetName: 44789 ISS DEB
Hit Count: updated at: Mon, 16 May 2022 11:39:38 GMT